Orbital Elements at Epoch 2459200.5 (2020-Dec-17.0) TDB
Reference: JPL 24 (heliocentric ecliptic J2000)
Element | Value | Uncertainty (1-sigma) | Units |
e | .2181039537544383 | 5.2595e-08 | |
a | 2.466622832942904 | 1.3612e-08 | au |
q | 1.928642640657083 | 1.3265e-07 | au |
i | 12.83757384768866 | 5.9639e-06 | deg |
node | 289.4701344125606 | 2.1139e-05 | deg |
peri | 346.5857017611753 | 2.4901e-05 | deg |
M | 228.953735695617 | 1.83e-05 | deg |
tp | 2459715.580006232995 (2022-May-16.08000623) | 7.4603e-05 | TDB |
period | 1414.987319388062 3.87 | 1.1713e-05 3.207e-08 | d yr |
n | .2544192411248525 | 2.1061e-09 | deg/d |
Q | 3.004603025228725 | 1.6581e-08 | au |
|
| | Orbit Determination Parameters
Additional Information
|